| time (UTC) | temp F | wind direction | speed MPH | gust MPH | rain 1hr in | rain 24hr in | rain mn in | humidity % | barometer mb |
| 20260510140109 | 71 | 80 | 2.0 | 7.0 | 0.00 | 0.00 | 0.00 | 50 | 1012.6 |
| 20260510134615 | 70 | 145 | 4.0 | 10.0 | 0.00 | 0.00 | 0.00 | 51 | 1012.9 |
| 20260510133110 | 71 | 113 | 4.0 | 9.0 | 0.00 | 0.00 | 0.00 | 51 | 1012.9 |
| 20260510130109 | 69 | 172 | 6.0 | 10.0 | 0.00 | 0.00 | 0.00 | 51 | 1013.3 |
| 20260510124609 | 70 | 178 | 4.0 | 9.0 | 0.00 | 0.00 | 0.00 | 48 | 1013.5 |
| 20260510123110 | 68 | 198 | 2.0 | 6.0 | 0.00 | 0.00 | 0.00 | 51 | 1013.7 |
| 20260510121609 | 69 | 150 | 2.0 | 10.0 | 0.00 | 0.00 | 0.00 | 52 | 1014.1 |
| 20260510120109 | 69 | 180 | 3.0 | 10.0 | 0.00 | 0.00 | 0.00 | 53 | 1014.2 |
| 20260510114609 | 67 | 153 | 5.0 | 9.0 | 0.00 | 0.00 | 0.00 | 52 | 1014.4 |
| 20260510111609 | 67 | 203 | 4.0 | 6.0 | 0.00 | 0.00 | 0.00 | 51 | 1014.8 |
| 20260510110114 | 67 | 210 | 2.0 | 5.0 | 0.00 | 0.00 | 0.00 | 52 | 1014.9 |
| 20260510103113 | 66 | 132 | 0.0 | 9.0 | 0.00 | 0.00 | 0.00 | 53 | 1015.2 |
| 20260510101613 | 65 | 178 | 3.0 | 8.0 | 0.00 | 0.00 | 0.00 | 53 | 1015.5 |
| 20260510100113 | 66 | 136 | 1.0 | 9.0 | 0.00 | 0.00 | 0.00 | 56 | 1015.6 |
| 20260510094613 | 65 | 30 | 1.0 | 6.0 | 0.00 | 0.00 | 0.00 | 53 | 1015.9 |
| 20260510093113 | 64 | 106 | 2.0 | 7.0 | 0.00 | 0.00 | 0.00 | 53 | 1016.1 |
| 20260510091613 | 63 | 172 | 1.0 | 6.0 | 0.00 | 0.00 | 0.00 | 55 | 1016.2 |
| 20260510090113 | 62 | 151 | 1.0 | 4.0 | 0.00 | 0.00 | 0.00 | 57 | 1016.4 |
| 20260510084612 | 61 | 123 | 2.0 | 5.0 | 0.00 | 0.00 | 0.00 | 58 | 1016.6 |
| 20260510083112 | 61 | 138 | 2.0 | 6.0 | 0.00 | 0.00 | 0.00 | 59 | 1016.7 |
| 20260510081613 | 60 | 113 | 3.0 | 8.0 | 0.00 | 0.00 | 0.00 | 57 | 1016.8 |
| 20260510080112 | 60 | 104 | 5.0 | 9.0 | 0.00 | 0.00 | 0.00 | 60 | 1017.1 |
| 20260510074612 | 58 | 67 | 0.0 | 5.0 | 0.00 | 0.00 | 0.00 | 63 | 1017.2 |
| 20260510073113 | 58 | 49 | 3.0 | 6.0 | 0.00 | 0.00 | 0.00 | 64 | 1017.3 |
| 20260510071612 | 57 | 107 | 2.0 | 4.0 | 0.00 | 0.00 | 0.00 | 66 | 1017.5 |
| 20260510070112 | 56 | 144 | 1.0 | 4.0 | 0.00 | 0.00 | 0.00 | 71 | 1017.7 |
| 20260510064612 | 54 | 77 | 0.0 | 5.0 | 0.00 | 0.00 | 0.00 | 70 | 1017.6 |
| 20260510061611 | 51 | 9 | 4.0 | 8.0 | 0.00 | 0.00 | 0.00 | 76 | 1017.9 |
| 20260510060111 | 50 | 40 | 4.0 | 9.0 | 0.00 | 0.00 | 0.00 | 78 | 1017.9 |
| 20260510054613 | 49 | 5 | 4.0 | 10.0 | 0.00 | 0.00 | 0.00 | 79 | 1017.6 |
| 20260510051611 | 47 | 39 | 4.0 | 8.0 | 0.00 | 0.00 | 0.00 | 83 | 1017.7 |
| 20260510050111 | 46 | 355 | 4.0 | 8.0 | 0.00 | 0.00 | 0.00 | 84 | 1017.8 |
| 20260510044611 | 45 | 322 | 3.0 | 6.0 | 0.00 | 0.00 | 0.00 | 87 | 1017.9 |
| 20260510043112 | 42 | 343 | 3.0 | 4.0 | 0.00 | 0.00 | 0.00 | 91 | 1018.2 |
| 20260510034611 | 40 | 315 | 2.0 | 4.0 | 0.00 | 0.00 | 0.00 | 91 | 1018.5 |
| 20260510033110 | 40 | 328 | 1.0 | 3.0 | 0.00 | 0.00 | 0.00 | 90 | 1018.2 |
| 20260510031610 | 40 | 346 | 3.0 | 5.0 | 0.00 | 0.00 | 0.00 | 90 | 1018.0 |
| 20260510030110 | 40 | 5 | 3.0 | 5.0 | 0.00 | 0.00 | 0.00 | 89 | 1018.1 |
| 20260510024610 | 41 | 347 | 2.0 | 6.0 | 0.00 | 0.00 | 0.00 | 88 | 1018.3 |
| 20260510023110 | 42 | 335 | 3.0 | 7.0 | 0.00 | 0.00 | 0.00 | 88 | 1018.3 |
| 20260510021610 | 42 | 29 | 3.0 | 5.0 | 0.00 | 0.00 | 0.00 | 88 | 1017.9 |
| 20260510014610 | 42 | 5 | 4.0 | 8.0 | 0.00 | 0.00 | 0.00 | 86 | 1018.5 |
| 20260510013110 | 44 | 341 | 4.0 | 5.0 | 0.00 | 0.00 | 0.00 | 84 | 1018.5 |
| 20260510011610 | 44 | 342 | 4.0 | 8.0 | 0.00 | 0.00 | 0.00 | 85 | 1018.4 |
| 20260510010110 | 44 | 350 | 3.0 | 5.0 | 0.00 | 0.00 | 0.00 | 84 | 1018.8 |
| 20260510001610 | 44 | 351 | 4.0 | 5.0 | 0.00 | 0.00 | 0.00 | 84 | 1019.1 |
| 20260510000109 | 44 | 342 | 4.0 | 8.0 | 0.00 | 0.00 | 0.00 | 83 | 1019.1 |
| 20260509234609 | 45 | 351 | 4.0 | 6.0 | 0.00 | 0.00 | 0.00 | 82 | 1019.2 |
| 20260509233109 | 45 | 348 | 4.0 | 5.0 | 0.00 | 0.00 | 0.00 | 82 | 1019.3 |
| 20260509231609 | 45 | 330 | 3.0 | 5.0 | 0.00 | 0.00 | 0.00 | 81 | 1019.5 |
| 20260509230109 | 45 | 340 | 4.0 | 6.0 | 0.00 | 0.00 | 0.00 | 81 | 1019.7 |
| 20260509224609 | 45 | 348 | 3.0 | 5.0 | 0.00 | 0.00 | 0.00 | 81 | 1019.7 |
| 20260509223109 | 46 | 340 | 3.0 | 5.0 | 0.00 | 0.00 | 0.00 | 81 | 1019.9 |
| 20260509221609 | 46 | 324 | 3.0 | 4.0 | 0.00 | 0.00 | 0.00 | 81 | 1019.9 |
| 20260509220109 | 45 | 336 | 2.0 | 4.0 | 0.00 | 0.00 | 0.00 | 81 | 1020.0 |
| 20260509211608 | 47 | 5 | 0.0 | 3.0 | 0.00 | 0.00 | 0.00 | 78 | 1020.0 |
| 20260509204608 | 48 | 19 | 1.0 | 2.0 | 0.00 | 0.00 | 0.00 | 76 | 1020.2 |
| 20260509203109 | 49 | 22 | 2.0 | 3.0 | 0.00 | 0.00 | 0.00 | 75 | 1020.2 |
| 20260509201608 | 49 | 24 | 3.0 | 4.0 | 0.00 | 0.00 | 0.00 | 75 | 1020.1 |
| 20260509193108 | 52 | 9 | 1.0 | 3.0 | 0.00 | 0.00 | 0.00 | 70 | 1019.9 |
| 20260509191608 | 50 | 329 | 4.0 | 8.0 | 0.00 | 0.00 | 0.00 | 83 | 1020.2 |
| 20260509190108 | 54 | 71 | 5.0 | 9.0 | 0.00 | 0.00 | 0.00 | 68 | 1019.6 |
| 20260509184608 | 55 | 57 | 4.0 | 6.0 | 0.00 | 0.00 | 0.00 | 67 | 1019.5 |
| 20260509183113 | 56 | 59 | 5.0 | 8.0 | 0.00 | 0.00 | 0.00 | 65 | 1019.3 |
| 20260509181612 | 57 | 5 | 4.0 | 9.0 | 0.00 | 0.00 | 0.00 | 63 | 1019.2 |
| 20260509174613 | 59 | 27 | 7.0 | 10.0 | 0.00 | 0.00 | 0.00 | 59 | 1019.2 |
| 20260509173112 | 59 | 360 | 6.0 | 10.0 | 0.00 | 0.00 | 0.00 | 59 | 1019.1 |
| 20260509171613 | 60 | 340 | 7.0 | 12.0 | 0.00 | 0.00 | 0.00 | 58 | 1018.9 |
| 20260509170112 | 60 | 54 | 4.0 | 11.0 | 0.00 | 0.00 | 0.00 | 58 | 1018.9 |
| 20260509164612 | 60 | 47 | 6.0 | 10.0 | 0.00 | 0.00 | 0.00 | 58 | 1018.9 |
| 20260509161613 | 61 | 337 | 7.0 | 13.0 | 0.00 | 0.00 | 0.00 | 56 | 1018.9 |
| 20260509160111 | 63 | 5 | 8.0 | 14.0 | 0.00 | 0.00 | 0.00 | 53 | 1019.1 |
| 20260509154611 | 63 | 19 | 7.0 | 12.0 | 0.00 | 0.00 | 0.00 | 55 | 1019.1 |
| 20260509153112 | 63 | 360 | 8.0 | 12.0 | 0.00 | 0.00 | 0.00 | 54 | 1019.2 |
| 20260509151611 | 63 | 48 | 10.0 | 14.0 | 0.00 | 0.00 | 0.00 | 55 | 1019.1 |
| 20260509150111 | 63 | 328 | 7.0 | 13.0 | 0.00 | 0.00 | 0.00 | 55 | 1019.2 |
| 20260509144611 | 64 | 19 | 6.0 | 10.0 | 0.00 | 0.00 | 0.00 | 56 | 1019.3 |
| 20260509143110 | 64 | 88 | 11.0 | 15.0 | 0.00 | 0.00 | 0.00 | 54 | 1019.2 |
| 20260509141610 | 64 | 24 | 8.0 | 16.0 | 0.00 | 0.00 | 0.00 | 54 | 1019.0 |